Location: Kaseke
(18.0171°S, 31.0526°E)
Time: 12:36:31
(UTC+00:00)

CORIOLIS - Pass Details

Date: 14 July 2020
Orbit: 819 x 838 km, 98.7° (Epoch: 07 August)

Event Time Altitude Azimuth Distance (km) Brightness Sun altitude
Rises 03:49:51 0° 12° (NNE) 3,367 7.8 -9.2°
Reaches altitude 10° 03:52:12 10° 11° (NNE) 2,437 7.1 -8.7°
Maximum altitude 03:57:37 85° 282° (WNW) 843 4.2 -7.5°
Drops below altitude 10° 04:03:04 10° 194° (SSW) 2,450 6.3 -6.2°
Sets 04:05:26 0° 193° (SSW) 3,386 7.0 -5.7°
